• In Uzbekistan
  • List of Countries
  • For 7 days
  • Water Temperature
  • Satellite Maps
  • Weather Map
  • Weather Widgets
  • user-avatar
    Login

    Hourly Weather Novolaspa

    Today, 26 February, Monday

    Time Temperature Precipitation Wind Pressure Humidity
    00:00 -14°C° 0 mm 4 mps 749 mmHg 86%
    01:00 -14°C° 0 mm 4 mps 749 mmHg 86%
    02:00 -14°C° 0 mm 4 mps 749 mmHg 86%
    03:00 -14°C° 0 mm 4 mps 749 mmHg 86%
    04:00 -15°C° 0 mm 4 mps 749 mmHg 87%
    05:00 -15°C° 0 mm 4 mps 750 mmHg 87%
    06:00 -15°C° 0 mm 4 mps 750 mmHg 88%
    07:00 -15°C° 0 mm 4 mps 750 mmHg 87%
    08:00 -16°C° 0 mm 4 mps 750 mmHg 86%
    09:00 -16°C° 0 mm 4 mps 750 mmHg 86%
    10:00 -15°C° 0 mm 4 mps 750 mmHg 83%
    11:00 -14°C° 0 mm 4 mps 751 mmHg 81%
    12:00 -12°C° 0 mm 4 mps 751 mmHg 79%
    13:00 -11°C° 0 mm 4 mps 751 mmHg 78%
    14:00 -11°C° 0 mm 4 mps 751 mmHg 76%
    15:00 -10°C° 0 mm 4 mps 751 mmHg 75%
    16:00 -11°C° 0 mm 4 mps 751 mmHg 77%
    17:00 -11°C° 0 mm 4 mps 751 mmHg 78%
    18:00 -11°C° 0 mm 4 mps 751 mmHg 80%
    19:00 -12°C° 0 mm 4 mps 751 mmHg 82%
    20:00 -14°C° 0 mm 5 mps 751 mmHg 84%
    21:00 -14°C° 0 mm 5 mps 751 mmHg 85%
    22:00 -15°C° 0 mm 5 mps 751 mmHg 86%
    23:00 -16°C° 0 mm 6 mps 751 mmHg 87%

    Tomorrow, 27 February, Tuesday

    Time Temperature Precipitation Wind Pressure Humidity
    00:00 -17°C° 0 mm 6 mps 750 mmHg 87%
    01:00 -17°C° 0 mm 6 mps 750 mmHg 87%
    02:00 -17°C° 0 mm 6 mps 750 mmHg 87%
    03:00 -18°C° 0 mm 7 mps 750 mmHg 88%
    04:00 -18°C° 0 mm 7 mps 749 mmHg 87%
    05:00 -18°C° 0 mm 7 mps 749 mmHg 87%
    06:00 -18°C° 0 mm 8 mps 749 mmHg 86%
    07:00 -18°C° 0 mm 8 mps 749 mmHg 85%
    08:00 -19°C° 0 mm 9 mps 749 mmHg 83%
    09:00 -17°C° 0 mm 9 mps 748 mmHg 82%
    10:00 -17°C° 0 mm 10 mps 748 mmHg 80%
    11:00 -15°C° 0 mm 10 mps 748 mmHg 78%
    12:00 -14°C° 0 mm 10 mps 747 mmHg 76%
    13:00 -14°C° 0.1 mm 10 mps 747 mmHg 78%
    14:00 -13°C° 0.1 mm 10 mps 746 mmHg 79%
    15:00 -13°C° 0.1 mm 10 mps 746 mmHg 81%
    16:00 -13°C° 0.4 mm 11 mps 746 mmHg 83%
    17:00 -13°C° 0.4 mm 11 mps 746 mmHg 86%
    18:00 -13°C° 0.4 mm 11 mps 745 mmHg 89%
    19:00 -13°C° 1.2 mm 11 mps 745 mmHg 90%
    20:00 -13°C° 1.2 mm 11 mps 745 mmHg 91%
    21:00 -13°C° 1.2 mm 11 mps 745 mmHg 93%
    22:00 -13°C° 0.3 mm 10 mps 745 mmHg 92%
    23:00 -13°C° 0.3 mm 10 mps 745 mmHg 91%

    Day after tomorrow, 28 February, Wednesday

    Time Temperature Precipitation Wind Pressure Humidity
    00:00 -12°C° 0.3 mm 10 mps 744 mmHg 91%
    01:00 -12°C° 0.3 mm 10 mps 744 mmHg 91%
    02:00 -12°C° 0.3 mm 10 mps 744 mmHg 92%
    03:00 -10°C° 0.3 mm 10 mps 744 mmHg 93%
    04:00 -9°C° 0.2 mm 9 mps 744 mmHg 93%
    05:00 -8°C° 0.2 mm 9 mps 744 mmHg 93%
    06:00 -6°C° 0.2 mm 8 mps 745 mmHg 93%
    07:00 -6°C° 0.1 mm 7 mps 745 mmHg 94%
    08:00 -4°C° 0.1 mm 6 mps 746 mmHg 94%
    09:00 -4°C° 0.1 mm 5 mps 746 mmHg 94%
    10:00 -4°C° 0.1 mm 5 mps 747 mmHg 94%
    11:00 -3°C° 0.1 mm 4 mps 748 mmHg 95%
    12:00 -3°C° 0.1 mm 4 mps 748 mmHg 95%
    13:00 -2°C° 0 mm 3 mps 748 mmHg 94%
    14:00 -2°C° 0 mm 3 mps 749 mmHg 93%
    15:00 -2°C° 0 mm 2 mps 749 mmHg 93%
    16:00 -2°C° 0 mm 2 mps 749 mmHg 93%
    17:00 -3°C° 0 mm 2 mps 749 mmHg 93%
    18:00 -1°C° 0 mm 1 mps 749 mmHg 93%
    19:00 -3°C° 0 mm 2 mps 749 mmHg 94%
    20:00 -4°C° 0 mm 3 mps 749 mmHg 94%
    21:00 -4°C° 0 mm 3 mps 749 mmHg 95%
    22:00 -5°C° 0 mm 5 mps 748 mmHg 95%
    23:00 -4°C° 0 mm 6 mps 747 mmHg 94%

    1 March, Thursday

    Time Temperature Precipitation Wind Pressure Humidity
    00:00 -4°C° 0 mm 7 mps 747 mmHg 93%
    01:00 -5°C° 0.1 mm 8 mps 746 mmHg 93%
    02:00 -5°C° 0.1 mm 8 mps 746 mmHg 92%
    03:00 -5°C° 0.1 mm 9 mps 745 mmHg 91%
    04:00 -5°C° 0.3 mm 10 mps 745 mmHg 90%
    05:00 -5°C° 0.3 mm 10 mps 744 mmHg 89%
    06:00 -6°C° 0.3 mm 11 mps 744 mmHg 89%
    07:00 -6°C° 0.2 mm 11 mps 744 mmHg 88%
    08:00 -4°C° 0.2 mm 11 mps 744 mmHg 87%
    09:00 -4°C° 0.2 mm 11 mps 744 mmHg 87%
    10:00 -5°C° 0.2 mm 12 mps 744 mmHg 86%
    11:00 -5°C° 0.2 mm 12 mps 744 mmHg 86%
    12:00 -5°C° 0.2 mm 13 mps 744 mmHg 86%
    13:00 -5°C° 0.2 mm 12 mps 743 mmHg 87%
    14:00 -5°C° 0.2 mm 12 mps 743 mmHg 88%
    15:00 -5°C° 0.2 mm 12 mps 743 mmHg 88%
    16:00 -6°C° 0.6 mm 12 mps 743 mmHg 90%
    17:00 -7°C° 0.6 mm 11 mps 743 mmHg 91%
    18:00 -7°C° 0.6 mm 11 mps 744 mmHg 92%
    19:00 -8°C° 0.4 mm 11 mps 744 mmHg 92%
    20:00 -8°C° 0.4 mm 10 mps 745 mmHg 92%
    21:00 -8°C° 0.4 mm 10 mps 745 mmHg 91%
    22:00 -8°C° 0.2 mm 9 mps 746 mmHg 92%
    23:00 -7°C° 0.2 mm 8 mps 746 mmHg 92%

    2 March, Friday

    Time Temperature Precipitation Wind Pressure Humidity
    00:00 -7°C° 0.2 mm 7 mps 747 mmHg 92%
    01:00 -7°C° 0.1 mm 7 mps 747 mmHg 93%
    02:00 -6°C° 0.1 mm 6 mps 747 mmHg 93%
    03:00 -6°C° 0.1 mm 5 mps 748 mmHg 93%
    04:00 -6°C° 0 mm 5 mps 748 mmHg 93%
    05:00 -5°C° 0 mm 4 mps 748 mmHg 93%
    06:00 -5°C° 0 mm 4 mps 748 mmHg 93%
    07:00 -5°C° 0 mm 4 mps 749 mmHg 93%
    08:00 -5°C° 0 mm 4 mps 749 mmHg 93%
    09:00 -5°C° 0 mm 4 mps 750 mmHg 92%
    10:00 -4°C° 0 mm 4 mps 750 mmHg 91%
    11:00 -4°C° 0 mm 4 mps 750 mmHg 90%
    12:00 -3°C° 0 mm 4 mps 750 mmHg 89%
    13:00 -3°C° 0 mm 4 mps 750 mmHg 89%
    14:00 -3°C° 0 mm 4 mps 750 mmHg 89%
    15:00 -3°C° 0 mm 4 mps 750 mmHg 89%
    16:00 -4°C° 0 mm 3 mps 751 mmHg 89%
    17:00 -4°C° 0 mm 3 mps 751 mmHg 90%
    18:00 -5°C° 0 mm 3 mps 751 mmHg 91%
    19:00 -5°C° 0 mm 3 mps 751 mmHg 92%
    20:00 -6°C° 0 mm 3 mps 751 mmHg 93%
    21:00 -7°C° 0 mm 3 mps 751 mmHg 94%
    22:00 -7°C° 0 mm 3 mps 751 mmHg 94%
    23:00 -7°C° 0 mm 3 mps 751 mmHg 95%

    3 March, Saturday

    Time Temperature Precipitation Wind Pressure Humidity
    00:00 -7°C° 0 mm 3 mps 751 mmHg 95%
    01:00 -7°C° 0 mm 3 mps 750 mmHg 96%
    02:00 -7°C° 0 mm 3 mps 750 mmHg 96%
    03:00 -7°C° 0 mm 3 mps 750 mmHg 96%
    04:00 -7°C° 0 mm 3 mps 750 mmHg 96%
    05:00 -8°C° 0 mm 3 mps 750 mmHg 96%
    06:00 -8°C° 0 mm 3 mps 750 mmHg 96%
    07:00 -8°C° 0 mm 3 mps 750 mmHg 96%
    08:00 -8°C° 0 mm 3 mps 750 mmHg 95%
    09:00 -8°C° 0 mm 3 mps 750 mmHg 95%
    10:00 -7°C° 0 mm 3 mps 749 mmHg 94%
    11:00 -7°C° 0 mm 4 mps 749 mmHg 93%
    12:00 -5°C° 0 mm 4 mps 749 mmHg 93%
    13:00 -5°C° 0 mm 4 mps 749 mmHg 93%
    14:00 -5°C° 0 mm 4 mps 748 mmHg 93%
    15:00 -5°C° 0 mm 4 mps 748 mmHg 93%
    16:00 -5°C° 0 mm 4 mps 748 mmHg 93%
    17:00 -5°C° 0 mm 4 mps 747 mmHg 94%
    18:00 -7°C° 0 mm 4 mps 747 mmHg 94%
    19:00 -7°C° 0.3 mm 5 mps 747 mmHg 94%
    20:00 -7°C° 0.3 mm 5 mps 747 mmHg 95%
    21:00 -8°C° 0.3 mm 5 mps 747 mmHg 95%
    22:00 -9°C° 0.6 mm 6 mps 746 mmHg 95%
    23:00 -9°C° 0.6 mm 6 mps 746 mmHg 95%
    Show more